Location: *
(2.7500°S, 66.6833°W)
Time: 04:44:08
(UTC+00:00)

GPS 2-15 Rocket1 - Pass Details

Date: 24 May 2024
Orbit: 615 x 664 km, 19.8° (Epoch: 23 June)

Event Time Altitude Azimuth Distance (km) Brightness Sun altitude
Rises 23:30:13 0° 270° (W) 2,978 7.9 -16.5°
Reaches altitude 10° 23:32:50 10° 260° (W) 2,063 6.6 -17.1°
Maximum altitude 23:37:07 30° 198° (SSW) 1,154 4.4 -18.1°
Enters shadow 23:38:54 24° 161° (SSE) 1,352 4.4 -18.5°
